Location: Goudex
(43.3760°N, 0.9543°E)
Time: 10:55:29
(UTC+00:00)

Daily predictions for brighter satellites

Satellite Brightness Start Highest point End
(mag) Time Altitude Azimuth Time Altitude Azimuth Time Altitude Azimuth
SL-16 R/B 2.7 18:52:14 10° SSW 18:57:52 70° WNW 19:03:34 10° NNE
Terra 3.5 18:57:05 10° E 18:59:49 16° ENE 19:02:33 10° NNE
Atlas Centaur 2 4.1 18:56:28 10° SW 19:00:18 19° S 19:04:40 10° SSE
Meteor 1-22 Rocket 4.3 18:57:13 10° S 19:02:42 65° E 19:08:29 10° NNE
Cosmos 1898 Rocket 3.9 18:58:25 10° S 19:03:19 42° ESE 19:08:13 10° NNE
CZ-4 R/B 2.5 19:01:25 10° ESE 19:04:27 23° ENE 19:07:28 10° NNE
PSLV R/B 3.8 19:01:11 10° S 19:05:11 68° WSW 19:09:15 10° NNW
Resurs 01 Rocket 2.2 19:01:52 10° S 19:06:13 64° W 19:10:34 10° NNW
Cosmos 2333 4.2 19:07:09 10° SSW 19:12:41 66° ESE 19:18:13 10° NNE
Cosmos 372 Rocket 4.0 19:08:55 10° S 19:14:05 72° ESE 19:19:19 10° NNE
Tiangong -0.5 19:11:58 10° W 19:14:37 25° SSW 19:17:15 10° SE
Meteor 1-24 Rocket 3.7 19:09:52 10° N 19:15:17 61° ENE 19:20:51 10° SSE
Cosmos 1538 Rocket 4.1 19:10:18 10° NNW 19:15:25 61° ENE 19:20:30 10° SSE
CENTAUR R/B 3.9 19:09:06 10° NW 19:17:32 62° WSW 19:26:51 10° SSE
Cosmos 1844 4.3 19:11:53 10° NNW 19:17:36 64° WSW 19:23:18 10° S
Cosmos 2219 Rocket 2.3 19:13:08 10° S 19:18:33 55° ESE 19:23:59 10° NNE
SPOT 5 2.9 19:14:59 10° SSE 19:19:41 57° ENE 19:24:11 10° N
Cosmos 2074 Rocket 4.0 19:15:48 10° S 19:21:57 70° E 19:28:10 10° NNE
CZ-4B R/B 4.0 19:18:41 10° SE 19:22:04 43° ENE 19:25:34 10° N
Meteor 1-31 Rocket 2.9 19:21:22 10° SE 19:24:42 43° ENE 19:28:04 10° N
Cosmos 1937 Rocket 3.7 19:19:46 10° S 19:24:50 48° ESE 19:29:55 10° NNE
COSMOS 2428 3.7 19:31:31 10° SSE 19:36:03 25° ESE 19:40:36 10° NE
USA 234 3.7 19:30:05 10° NE 19:36:35 67° NW 19:43:04 10° WSW
IRAS Rocket 4.2 19:32:29 10° SSE 19:38:00 81° ENE 19:43:31 10° NNW
Cosmos 1953 2.7 19:34:57 10° SSW 19:38:27 57° W 19:42:01 10° N
Meteor 1-15 Rocket 4.2 19:33:00 10° S 19:38:34 90° WNW 19:44:10 10° N
CZ-4B R/B 3.8 19:35:07 13° SE 19:39:37 40° ENE 19:44:49 10° N
CZ-4B DEB 4.3 19:34:51 10° SSE 19:40:09 57° ENE 19:45:31 10° N
CSL-04 Rocket 3.7 19:34:55 10° SSE 19:40:26 84° ENE 19:46:01 10° NNW
Cosmos 2278 Rocket 3.9 19:41:02 10° N 19:44:54 18° NE 19:47:49 13° E
Cosmos 1610 Rocket 4.5 19:40:44 10° S 19:46:57 66° E 19:53:10 10° NNE
Cosmos 2333 Rocket 3.9 19:42:08 10° WSW 19:47:20 36° NW 19:52:34 10° N
NOSS 3-2 (C) 4.3 19:42:48 10° NNW 19:50:00 57° NE 19:56:23 19° ESE
Iridium 82 4.5 19:47:48 10° N 19:50:48 64° W 19:53:44 10° S
Cosmos 1703 Rocket 3.4 19:51:07 10° N 19:55:27 67° E 19:58:41 17° SSE
Cosmos 1470 Rocket 3.9 19:51:32 10° SSW 19:55:54 69° W 20:00:16 10° N
BREEZE-M DEB (TANK) 3.5 19:53:45 10° WNW 19:56:01 29° N 19:59:33 11° ENE
Spot 2 Rocket 4.5 19:53:55 21° ESE 19:56:04 29° ENE 20:00:23 10° N
Geosat 3.9 19:51:31 10° NNE 19:56:32 84° ESE 20:01:32 10° SSW
Lacrosse 5 rocket 0.5 19:54:20 10° SW 19:57:33 80° SE 20:00:41 10° NE
NOSS 3-2 (A) 4.3 19:50:56 10° NW 19:58:28 73° WSW 20:06:45 12° SSE
ARIANE 6 FM1 Upper Stage 3.9 19:54:51 10° WSW 19:58:49 43° NW 20:02:43 10° NNE
Meteor 2-5 Rocket 4.1 19:54:53 10° NNW 20:00:21 64° W 20:05:50 10° S
ERS-1 Rocket 2.9 19:57:46 17° SSE 20:01:32 67° ENE 20:06:31 10° N
Cosmos 1933 Rocket 3.5 19:59:04 10° S 20:03:20 61° E 20:07:41 10° NNE
Nadezhda 3 Rocket 4.1 19:59:37 10° N 20:05:47 75° W 20:11:53 10° S
Cosmos 2218 Rocket 4.4 20:06:05 21° SE 20:09:41 40° E 20:15:21 10° NNE
Cosmos 1943 Rocket 3.2 20:05:52 10° N 20:10:54 31° NE 20:12:58 25° E
Meteor 1-12 Rocket 4.3 20:06:42 10° S 20:12:40 86° E 20:18:43 10° N
Helios 1A Rocket 3.6 20:09:43 10° N 20:12:49 42° WNW 20:15:52 10° SW
YAOGAN 11 4.5 20:09:27 10° NNE 20:13:26 38° E 20:13:55 36° ESE
In-Cosmos 22 Rocket 4.2 20:11:26 10° N 20:16:43 57° ENE 20:19:02 32° SE
OPS 6432 4.1 20:16:17 10° NW 20:19:39 84° NE 20:20:04 65° SE
Okean-O 3.0 20:20:35 38° E 20:21:24 43° ENE 20:25:33 10° N
Cosmos 1821 Rocket 4.5 20:22:24 32° ESE 20:24:10 38° E 20:29:54 10° NNE
Cosmos 494 Rocket 4.0 20:19:35 10° NNW 20:24:43 61° ENE 20:26:29 39° SE
Cosmos 962 Rocket 4.4 20:18:54 10° S 20:25:10 82° E 20:31:23 10° N
Cosmos 2360 Rocket 4.2 20:21:24 10° WSW 20:26:16 29° NW 20:31:10 10° N
Cosmos 1869 Rocket 3.5 20:30:47 25° S 20:33:19 88° WNW 20:37:43 10° N
ADEOS 3.7 20:32:48 25° S 20:35:51 72° WSW 20:41:05 10° NNW
Terra 2.1 20:34:16 26° S 20:36:48 64° W 20:41:29 10° NNW
CZ-4 R/B 3.3 20:35:09 10° SSW 20:38:21 25° W 20:41:33 10° NW
BREEZE-M DEB (TANK) 4.3 20:38:24 10° WSW 20:42:17 81° NNW 20:58:18 10° ENE
Okean O Rocket 1.4 20:43:57 66° SE 20:44:31 81° ENE 20:48:53 10° N
Cosmos 2237 Rocket 3.0 20:47:31 33° ENE 20:47:31 33° ENE 20:51:19 10° NE
Cosmos 2242 Rocket 4.1 20:42:28 10° N 20:46:21 43° ENE 20:46:21 43° ENE
Cosmos 1980 4.3 20:47:57 38° E 20:47:57 38° E 20:52:10 10° NE
SL-08 R/B 3.7 20:44:25 10° N 20:49:15 64° WNW 20:53:56 11° SSW
Cosmos 2322 3.8 20:44:19 10° SSW 20:50:01 76° WNW 20:55:46 10° NNE
CZ-4B R/B 4.0 20:51:35 29° NNE 20:51:35 29° NNE 20:53:42 10° N
ASTEX 1 3.6 20:50:47 52° ENE 20:50:47 52° ENE 20:55:30 10° N
Cosmos 2341 Rocket 4.0 20:46:43 15° S 20:51:57 82° W 20:58:16 10° N
IRS-1A Rocket 4.5 20:52:14 33° S 20:54:44 66° WSW 21:00:20 10° NNW
Meteor 1-21 Rocket 4.1 20:54:02 10° N 20:59:39 85° W 21:01:08 52° S
Cosmos 1680 Rocket 4.1 20:55:57 10° NNW 21:00:58 50° WSW 21:02:37 36° SSW
SPOT 3 Rocket 3.6 21:02:11 58° ENE 21:02:18 58° ENE 21:07:24 10° N
Cosmos 2219 Rocket 4.4 20:58:15 10° WSW 21:02:48 25° NW 21:07:22 10° N
Spot 3 4.5 21:03:36 66° SSE 21:04:25 89° ENE 21:09:46 10° NNW
Meteor 2-14 Rocket 4.4 21:02:06 10° N 21:08:13 81° W 21:09:58 49° S
Meteor 2-21 Rocket 4.4 21:08:32 10° N 21:14:35 61° ENE 21:14:50 60° E
USA 245 4.2 21:17:15 48° NNW 21:17:15 48° NNW 21:20:34 10° NNW
SL-24 R/B - RUBIN 2 4.3 21:11:55 10° NW 21:16:05 46° WSW 21:16:05 46° WSW
COSMOS 2428 3.5 21:14:21 10° SW 21:19:54 51° WNW 21:25:30 10° NNE
Cosmos 2369 Rocket 4.2 21:17:11 10° N 21:20:23 15° NE 21:20:57 15° NE
NOSS 0 Rocket 4.0 21:16:33 10° SSW 21:22:47 75° WNW 21:29:03 10° NNE
Ariane Rocket 3.2 21:26:52 64° NNE 21:26:52 64° NNE 21:31:14 10° N
Cosmos 1727 Rocket 3.8 21:21:42 10° N 21:28:05 83° E 21:28:33 77° SE
Cosmos 2278 Rocket 2.1 21:23:59 10° NNW 21:29:39 83° WSW 21:29:39 83° WSW
USA 238 DEB 4.0 21:23:21 10° NNW 21:30:48 70° NE 21:32:16 58° ESE
USA 238 4.0 21:23:32 10° NNW 21:30:58 69° NE 21:32:26 58° ESE
Lacrosse 5 rocket 3.8 21:32:29 10° WNW 21:34:04 15° NW 21:34:04 15° NW
Meteor 2-8 Rocket 4.4 21:47:10 82° NNW 21:47:10 82° NNW 21:53:02 10° N
SL-16 R/B 4.3 21:58:05 16° NE 21:58:05 16° NE 21:59:17 10° NE
Cosmos 1943 Rocket 3.0 21:49:24 10° NW 21:54:29 42° W 21:54:29 42° W
SeaSat 1 3.6 21:59:30 38° N 21:59:30 38° N 22:02:46 10° NNW
Cosmos 1934 Rocket 4.3 22:03:44 62° NNE 22:03:44 62° NNE 22:08:54 10° N
Cosmos 2123 Rocket 4.1 21:58:22 10° N 22:03:50 69° N 22:03:50 69° N
USA 59 Rocket 2.6 22:02:13 10° NNW 22:02:48 15° NNW 22:02:48 15° NNW
NOSS 3-4 (A) 3.9 22:10:28 49° NW 22:10:28 49° NW 22:15:55 10° NNE
NOSS 3-4 (C) 3.9 22:11:02 50° NW 22:11:02 50° NW 22:16:27 10° NNE
Cosmos 2237 Rocket 3.6 22:29:12 32° WNW 22:30:08 34° NW 22:35:20 10° N
Cosmos 2369 Rocket 3.6 22:59:41 10° NNW 23:02:43 33° NNW 23:02:43 33° NNW
SJ 16-02 4.4 23:32:58 10° N 23:33:16 11° N 23:33:16 11° N
SL-16 R/B 3.9 23:39:53 29° NNW 23:39:53 29° NNW 23:43:22 10° N
CZ-2C R/B 4.4 23:44:18 29° NNE 23:44:18 29° NNE 23:47:12 10° N
ACS3 Solar Sail 4.1 23:39:20 10° NE 23:40:25 12° ENE 23:40:25 12° ENE
